User: anonymous   Login
Location: 22
(39.7117°N, 89.5929°W)
Time: 11:14:23
(UTC-05:00)
Language:

deb Explorer IX - Orbit

View from above orbital plane
View from above orbital plane
View from above satellite
View from above satellite

Ground track
Ground track

The orbit data is extracted from the following two-line orbital elements,

1    85U 61004C   24207.26219376  .00022917  00000-0  29145-2 0  9999
2    85  38.7382 160.0634 0260681 225.9714 131.9296 14.59943538145911
Epoch (UTC): 25 July 2024 06:17:33
Eccentricity: 0.0260681
inclination: 38.7382°
perigee height: 509 km
apogee height: 877 km
right ascension of ascending node: 160.0634°
argument of perigee: 225.9714°
revolutions per day: 14.59943538
mean anomaly at epoch: 131.9296°
orbit number at epoch: 14591

The dashed part of the orbit path shows where the satellite is in the earth's shadow,  

DLR